{"data":{"norad_id":58043,"intl_designator":"2023-156R","name":"STARLINK-30564","alt_names":[],"object_type":"PAYLOAD","status":"ACTIVE","operator":null,"country":"US","launch_date":"2023-10-09","launch_site_code":"AFWTR","launch_vehicle":null,"mission":null,"orbit_class":"UNKNOWN","rcs_meters":null,"size_class":null,"mass_kg":null,"dimensions":null,"purposes":["comms"],"wikipedia_slug":null,"has_3d_model":false,"image_url":null,"decayed_at":null,"tle_current":{"epoch":"2026-05-25T02:51:32.171040Z","epoch_age_seconds":68064,"freshness":"FRESH","line1":"1 58043U 23156R   26145.11912235  .00034652  00000+0  11771-2 0  9997","line2":"2 58043  53.1564  83.4780 0001147 109.8291 250.2833 15.30188123148018","mean_motion":15.30188123,"eccentricity":0.0001147,"inclination_deg":53.1564,"raan_deg":83.478,"arg_perigee_deg":109.8291,"mean_anomaly_deg":250.2833,"bstar":0.0011771,"rev_number":14801,"period_min":94.106076132444,"perigee_km":474.46444867991,"apogee_km":476.0366157798,"semimajor_km":6853.3875322299,"source":"CELESTRAK","updated_at":"2026-05-25T13:38:18.497099Z"}}}